Location: Carri�res
(48.9069°N, 2.1792°E)
Time: 18:46:40
(UTC+00:00)

SeaSat 1 - Pass Details

Date: 17 May 2021
Orbit: 744 x 747 km, 108.0° (Epoch: 12 June)

Event Time Altitude Azimuth Distance (km) Brightness Sun altitude
Rises 00:23:31 0° 31° (NNE) 3,202 6.9 -21.3°
Reaches altitude 10° 00:25:49 10° 35° (NE) 2,274 5.9 -21.2°
Maximum altitude 00:30:44 64° 117° (ESE) 829 2.5 -21.1°
Enters shadow 00:31:58 47° 174° (S) 987 2.6 -21.0°
